Hlavní strana
METAR-TAF:

METAR-TAF

Letiště :

Henderson-Oxford Airport

Oxford, Severní Karolína, Spojené státy americké

zeměpisná šířka: 36-21-42N, zeměpisná délka: 078-31-45W, výška: 161 m

Aktuální stav počasí

Zpráva byla vytvořena před 22 minutami, v 07:55 UTC
Jihozápadní vítr 7 kt
Teplota 19°C
Vlhkost vzduchu 83%
Tlak 1015 hPa
Viditelnost: 16.1 km
Jasno

METAR: KHNZ 190755Z AUTO 22007KT 10SM CLR 19/16 A2997 RMK AO2 T01940157

Čas: 04:17 (08:17 UTC)


TAF: chybějící

Stav a předpovědi počasí z více než 4 000 letišť (zprávy METAR a TAF).

Červené a žluté tečky na mapě představují dostupné meteorologické stanice.

Když kurzor umístíte na tečku, zobrazí se název stanice.

Pak kliknutím zobrazíte stav a předpověď počasí.

Chcete-li změnit mapu, kliknutím na zelené tlačítko se znaménkem +mapu přiblížíte, kliknutím na zelené tlačítko se znaménkem – mapu oddálíte a kliknutím na zelené šipky přejdete na sousední mapy.


METAR-TAF: